Location: Island Grove Observatory.
(44.2333°N, 79.4500°W)
Time: 12:33:47
(UTC-05:00)

N. Korean satellite - Pass Details

Date: 29 November 2021
Orbit: 447 x 491 km, 97.3° (Epoch: 23 January)

Event Time Altitude Azimuth Distance (km) Brightness Sun altitude
Rises 05:22:28 0° 16° (NNE) 2,478 10.3 -22.5°
Reaches altitude 10° 05:24:33 10° 20° (NNE) 1,594 9.3 -22.1°
Maximum altitude 05:27:55 56° 100° (E) 539 7.0 -21.5°
Drops below altitude 10° 05:31:13 10° 180° (S) 1,569 9.2 -20.9°
Sets 05:33:15 0° 185° (S) 2,434 10.2 -20.6°
